Location: San Vito
(41.8833°N, 12.9833°E)
Time: 00:39:12
(UTC+00:00)

Cosmos 1484 Rocket - Pass Details

Date: 17 November 2019
Orbit: 507 x 559 km, 97.4° (Epoch: 07 December)

Event Time Altitude Azimuth Distance (km) Brightness Sun altitude
Rises 04:01:47 0° 14° (NNE) 2,747 6.5 -21.8°
Reaches altitude 10° 04:03:56 10° 18° (NNE) 1,851 5.6 -21.4°
Maximum altitude 04:07:56 66° 101° (E) 614 3.2 -20.7°
Drops below altitude 10° 04:11:54 10° 184° (S) 1,839 5.5 -20.0°
Sets 04:14:02 0° 187° (S) 2,727 6.4 -19.6°
